DELTA 1 DEB, 26836

Orbit data source: Space-Track

DELTA 1 DEB, 26836 is space debris in SSO originally from a launch on Thu, 12 Jun 1975 UTC launched from the Air Force Western Test Range (AFWTR). Debris objects in space refer to the collection of defunct objects orbiting the Earth. Examples of debris include non-operational satellites, rocket bodies, and fragments generated from explosions, collisions, or faulty payload assembly.

Loading next visibility...
Identifier
26836, 1975-052KQ
Orbit
SSO
Country
Flag of USUS
Related business
Manufacturer
Unknown
Mission
Spacecraft
Bus & Motor
Unknown
Mass
Unknown
Launch date (UTC)
1975-06-12 (50 years ago)
Launch vehicle
Unknown
Launch site
Air Force Western Test Range (AFWTR)
Object type
Payload
Rocket body
Debris
Shape & HBR
Unknown shape, 0.1 m
Radar Cross Section
Small (<0.1 m²)

Expand to show TLE details & history
Last TLE update: 3 days ago

TLE from 3 days ago
0 DELTA 1 DEB
1 26836U 75052KQ  25297.45872516  .00000092  00000-0  28907-3 0  9997
2 26836  99.8453   0.4556 0104931  72.4518 305.7572 13.27015602576903
Epoch: 2025-10-24T11:00Z
TLE epoch observation values (Epoch: 2025-10-24T11:00:33.853Z)
Latitude
16.95234°
Longitude
159.19439°
Altitude
1,114.515 km
Speed
7.319 km/s
True Right ascension
23h 49m 45s
True Declination
16° 51' 40"
Sunlit
Object was in full shadow at epoch
Visualization orbit readout
Latitude
Unknown
Longitude
Unknown
Altitude
Unknown
Speed
Unknown
Apparent Right ascension
Unknown
Apparent Declination
Unknown
Sunlit
N/A
Visualization observer readout
Local Sidereal Time
10:53:55
Azimuth
Unknown
Elevation
Unknown
Doppler factor
Unknown
Orbital elements
Apogee altitude
1,234.43 km
Perigee altitude
1,076.33 km
Semi-major axis
7,533.517 km
Eccentricity
0.01049
Inclination
99.8453°
RAAN
0.4556°
Arg. of periapsis
72.4518°
True anomaly
304.77395°
Mean anomaly
305.7572°
Eccentric anomaly
305.26633°
Mean motion
3.3193 °/min
Orbital period
108.46 mins
BSTAR
0.00028907
Loading maneuver chart data...
Computing Atmospheric mass density...
Loading historical data...
Loading historical data...
Loading historical data...
Loading historical data...
Loading historical data...
Loading historical data...
Loading historical data...

Documentation

Showing up to 5 results
|